Weather History for Shelby, NC

Change the Weather History Date:

Tuesday, January 2, 2007

  Actual Average (KHKY) Record (KHKY)
Temperature  
Mean Temperature 47 °F -  
Max Temperature 59 °F 48 °F 76 °F (1952)
Min Temperature 35 °F 31 °F 16 °F (1958)
Degree Days  
Heating Degree Days 18    
Moisture  
Dew Point 32 °F    
Average Humidity 58    
Maximum Humidity 87    
Minimum Humidity 34    
Precipitation  
Precipitation 0.00 in - - ()
Sea Level Pressure  
Sea Level Pressure 30.32 in    
Wind  
Wind Speed 4 mph (North)    
Max Wind Speed 10 mph    
Max Gust Speed 16 mph    
Visibility 10 miles    
Events      
Averages and records for this station are not official NWS values.
T = Trace of Precipitation, MM = Missing Value Source: NWS Daily Summary

Daily Weather History Graph

Daily Weather History Graph

Search for Another Location

Airport:

Trip Planner

Search our weather history database for the weather conditions in past years. The results will help you decide how hot, cold, wet, or windy it might be!

Date:

Astronomy

Jan. 02, 2007 Rise Set
Actual Time 7:35 AM EST 5:25 PM EST
Civil Twilight 7:07 AM EST 5:53 PM EST
Nautical Twilight 6:35 AM EST 6:25 PM EST
Astronomical Twilight 6:04 AM EST 6:56 PM EST
Moon 4:25 PM EST (1/2) 7:00 AM EST (1/2)
Length of Visible Light 10h 46m
Length of Day
9h 50m
Waxing Gibbous, 99% of the Moon is Illuminated
Jan 2
Waxing Gibbous
Jan 3
Full
Jan 11
Last Quarter
Jan 18
New
Jan 25
First Quarter

Hourly Weather History & Observations

Time (EST) Temp. Windchill Dew Point Humidity Pressure Visibility Wind Dir Wind Speed Gust Speed Precip Events Conditions
12:18 AM 46.4 °F 43.5 °F 32.0 °F 57% 30.14 in 10.0 mi NNW 5.8 mph - N/A   Clear
12:58 AM 44.6 °F 39.2 °F 32.0 °F 61% 30.15 in 10.0 mi NNW 10.4 mph 16.1 mph N/A   Clear
1:18 AM 44.6 °F 40.7 °F 32.0 °F 61% 30.16 in 10.0 mi NW 6.9 mph - N/A   Clear
1:38 AM 44.6 °F 40.2 °F 32.0 °F 61% 30.17 in 10.0 mi NNW 8.1 mph - N/A   Clear
1:58 AM 44.6 °F 40.7 °F 32.0 °F 61% 30.17 in 10.0 mi NNW 6.9 mph - N/A   Clear
2:18 AM 44.6 °F 39.7 °F 32.0 °F 61% 30.19 in 10.0 mi NNW 9.2 mph - N/A   Clear
2:38 AM 44.6 °F 40.7 °F 32.0 °F 61% 30.19 in 10.0 mi NNW 6.9 mph - N/A   Clear
2:58 AM 44.6 °F 40.7 °F 32.0 °F 61% 30.20 in 10.0 mi NW 6.9 mph - N/A   Clear
3:18 AM 42.8 °F 39.3 °F 32.0 °F 66% 30.20 in 10.0 mi NW 5.8 mph - N/A   Clear
3:38 AM 42.8 °F 39.3 °F 32.0 °F 66% 30.20 in 10.0 mi NNW 5.8 mph - N/A   Clear
3:58 AM 42.8 °F 41.1 °F 32.0 °F 66% 30.20 in 10.0 mi North 3.5 mph - N/A   Clear
4:18 AM 42.8 °F - 32.0 °F 66% 30.20 in 10.0 mi Calm Calm - N/A   Clear
4:38 AM 42.8 °F - 32.0 °F 66% 30.20 in 10.0 mi Calm Calm - N/A   Clear
4:58 AM 42.8 °F - 32.0 °F 66% 30.21 in 10.0 mi Calm Calm - N/A   Clear
5:18 AM 42.8 °F - 32.0 °F 66% 30.21 in 10.0 mi Calm Calm - N/A   Clear
5:58 AM 41.0 °F 39.0 °F 32.0 °F 70% 30.24 in 10.0 mi SSE 3.5 mph - N/A   Clear
6:18 AM 41.0 °F 39.0 °F 32.0 °F 70% 30.25 in 10.0 mi South 3.5 mph - N/A   Clear
6:58 AM 37.4 °F - 32.0 °F 81% 30.28 in 10.0 mi Calm Calm - N/A   Clear
7:18 AM 39.2 °F - 32.0 °F 75% 30.29 in 10.0 mi Calm Calm - N/A   Clear
7:38 AM 41.0 °F - 32.0 °F 70% 30.30 in 10.0 mi Calm Calm - N/A   Clear
7:58 AM 39.2 °F 37.0 °F 32.0 °F 75% 30.31 in 10.0 mi SSE 3.5 mph - N/A   Clear
8:18 AM 35.6 °F - 32.0 °F 87% 30.32 in 10.0 mi Calm Calm - N/A   Clear
8:38 AM 37.4 °F - 33.8 °F 87% 30.32 in 10.0 mi Calm Calm - N/A   Clear
8:58 AM 41.0 °F - 33.8 °F 76% 30.33 in 10.0 mi Calm Calm - N/A   Clear
9:18 AM 42.8 °F - 33.8 °F 70% 30.34 in 10.0 mi Calm Calm - N/A   Clear
9:38 AM 44.6 °F - 33.8 °F 66% 30.34 in 10.0 mi Calm Calm - N/A   Clear
9:58 AM 46.4 °F - 32.0 °F 57% 30.35 in 10.0 mi Calm Calm - N/A   Clear
10:18 AM 46.4 °F - 32.0 °F 57% 30.37 in 10.0 mi Calm Calm - N/A   Clear
10:38 AM 48.2 °F - 32.0 °F 54% 30.38 in 10.0 mi Calm Calm - N/A   Clear
10:58 AM 50.0 °F - 32.0 °F 50% 30.38 in 10.0 mi Calm Calm - N/A   Clear
11:18 AM 50.0 °F - 32.0 °F 50% 30.39 in 10.0 mi Calm Calm - N/A   Clear
11:38 AM 51.8 °F - 32.0 °F 47% 30.39 in 10.0 mi South 3.5 mph - N/A   Clear
11:58 AM 51.8 °F - 32.0 °F 47% 30.38 in 10.0 mi SSW 4.6 mph - N/A   Clear
12:18 PM 51.8 °F - 32.0 °F 47% 30.37 in 10.0 mi Calm Calm - N/A   Clear
12:58 PM 53.6 °F - 30.2 °F 41% 30.35 in 10.0 mi Calm Calm - N/A   Clear
1:18 PM 55.4 °F - 30.2 °F 38% 30.35 in 10.0 mi Calm Calm - N/A   Clear
1:38 PM 55.4 °F - 32.0 °F 41% 30.34 in 10.0 mi Calm Calm - N/A   Clear
1:58 PM 55.4 °F - 32.0 °F 41% 30.34 in 10.0 mi Calm Calm - N/A   Clear
2:18 PM 57.2 °F - 32.0 °F 38% 30.33 in 10.0 mi Calm Calm - N/A   Clear
2:38 PM 59.0 °F - 30.2 °F 34% 30.33 in 10.0 mi East 4.6 mph - N/A   Clear
2:58 PM 59.0 °F - 30.2 °F 34% 30.34 in 10.0 mi East 5.8 mph - N/A   Clear
3:18 PM 59.0 °F - 30.2 °F 34% 30.34 in 10.0 mi ESE 6.9 mph - N/A   Clear
3:58 PM 59.0 °F - 30.2 °F 34% 30.37 in 10.0 mi Calm Calm - N/A   Clear
4:18 PM 59.0 °F - 30.2 °F 34% 30.37 in 10.0 mi Calm Calm - N/A   Clear
4:38 PM 57.2 °F - 30.2 °F 36% 30.37 in 10.0 mi Calm Calm - N/A   Clear
4:58 PM 55.4 °F - 30.2 °F 38% 30.37 in 10.0 mi Calm Calm - N/A   Clear
5:18 PM 55.4 °F - 30.2 °F 38% 30.37 in 10.0 mi NE 3.5 mph - N/A   Clear
5:58 PM 53.6 °F - 30.2 °F 41% 30.37 in 10.0 mi Calm Calm - N/A   Clear
6:18 PM 53.6 °F - 32.0 °F 44% 30.37 in 10.0 mi Calm Calm - N/A   Clear
6:38 PM 51.8 °F - 32.0 °F 47% 30.38 in 10.0 mi Calm Calm - N/A   Clear
6:58 PM 51.8 °F - 32.0 °F 47% 30.38 in 10.0 mi NE 4.6 mph - N/A   Clear
7:18 PM 48.2 °F - 32.0 °F 54% 30.39 in 10.0 mi NNE 5.8 mph - N/A   Clear
7:38 PM 50.0 °F - 32.0 °F 50% 30.40 in 10.0 mi ENE 3.5 mph - N/A   Clear
7:58 PM 48.2 °F - 32.0 °F 54% 30.40 in 10.0 mi SE 4.6 mph - N/A   Clear
8:18 PM 50.0 °F - 32.0 °F 50% 30.40 in 10.0 mi Calm Calm - N/A   Clear
8:38 PM 44.6 °F - 32.0 °F 61% 30.41 in 10.0 mi Calm Calm - N/A   Clear
8:58 PM 46.4 °F - 32.0 °F 57% 30.41 in 10.0 mi Calm Calm - N/A   Clear
9:18 PM 44.6 °F - 32.0 °F 61% 30.41 in 10.0 mi Calm Calm - N/A   Clear
9:38 PM 42.8 °F - 32.0 °F 66% 30.42 in 10.0 mi Calm Calm - N/A   Clear
9:58 PM 41.0 °F 39.0 °F 33.8 °F 76% 30.43 in 10.0 mi NW 3.5 mph - N/A   Clear
10:18 PM 41.0 °F - 33.8 °F 76% 30.43 in 10.0 mi Calm Calm - N/A   Clear
10:58 PM 39.2 °F - 32.0 °F 75% 30.44 in 10.0 mi Calm Calm - N/A   Clear
11:18 PM 41.0 °F - 32.0 °F 70% 30.44 in 10.0 mi Calm Calm - N/A   Clear
11:38 PM 37.4 °F - 32.0 °F 81% 30.43 in 10.0 mi Calm Calm - N/A   Clear
11:58 PM 37.4 °F - 33.8 °F 87% 30.43 in 10.0 mi Calm Calm - N/A   Clear